Location: Freiburg+im+Breisgau
(48.0359°N, 7.8195°E)
Time: 12:24:11
(UTC+01:00)

ISS - Pass Details

Date: 11 November 2017
Orbit: 402 x 407 km, 51.6° (Epoch: 24 November)

Event Time Altitude Azimuth Distance (km) Brightness Sun altitude
Exits shadow 05:09:50 33° 47° (NE) 702 -2.3 -23.3°
Drops below altitude 10° 05:12:03 10° 78° (ENE) 1,457 0.0 -23.0°
Sets 05:14:12 0° 85° (E) 2,316 1.5 -22.6°
